[[{"header":{"parameterUnit":"m.s-1","parameterCategory":1,"la1":30.2991,"la2":30.254,"lo1":-89.0895,"lo2":-89.0444,"dy":0.0017,"dx":0.0017,"nx":28,"ny":28,"refTime":"2025-03-22T03:00:00:Z","depth":0,"parameterNumber":2,"parameterNumberName":"U-component_of_WINDS"},"data":[0,0,0,0,0,0,0,0,0,0,0,0,0,0,0,0,0,0,0,0,0,0,0,0,0,0,0,0,0,0,0,0,0,0,0,0,0,0,0,0,0,0,0,0,0,0,0,0,0,0,0,0,0,0,0,0,0,0,-2.3819,-2.3819,0,-2.3816,-2.3816,-2.3816,-2.3796,-2.3796,-2.3795,-2.3795,-2.3792,-2.3792,-2.3793,0,0,0,0,0,0,0,0,0,0,0,0,0,-2.381,-2.3811,-2.3819,-2.3819,-2.3819,-2.3816,-2.3816,-2.3816,-2.3796,-2.3796,-2.3795,-2.3795,-2.3792,-2.3792,-2.3793,0,0,0,0,0,0,0,0,0,0,0,0,0,-2.3811,-2.3811,-2.3819,-2.3809,-2.3808,-2.3816,-2.3816,-2.3816,-2.3796,-2.3796,-2.3795,-2.3794,-2.3792,-2.3792,-2.3793,-2.381,0,0,-2.3794,-2.3795,0,0,0,0,0,0,0,0,-2.3811,-2.3812,-2.3811,-2.381,-2.3809,-2.3806,-2.3811,-2.3814,-2.3797,-2.3801,-2.3795,-2.3794,-2.3797,-2.3797,-2.3798,-2.381,-2.381,-2.3794,-2.3795,-2.3795,-2.3795,0,0,0,0,0,0,0,-2.3811,-2.3812,-2.3818,-2.3811,-2.381,-2.3805,-2.3804,-2.3812,-2.3803,-2.38,-2.3799,-2.3799,-2.3796,-2.3798,-2.3798,-2.381,-2.3794,-2.3795,-2.3795,-2.3795,-2.3836,-2.3836,0,0,0,0,0,0,-2.3813,-2.3812,-2.3818,-2.3818,-2.3808,-2.3806,-2.3805,-2.3807,-2.3803,-2.3801,-2.3799,-2.3798,-2.3797,-2.3797,-2.3798,-2.3817,-2.3795,-2.3795,-2.3796,-2.3835,-2.3836,-2.3837,0,0,0,0,0,0,-2.3812,-2.3813,-2.3818,-2.3814,-2.3815,-2.3807,-2.3809,-2.3808,-2.3809,-2.3802,-2.38,-2.3802,-2.3796,-2.3797,-2.3807,-2.3817,-2.3796,-2.3796,-2.3834,-2.3835,-2.3836,-2.3856,0,0,0,0,0,0,-2.3812,-2.3813,-2.3819,-2.3815,-2.3815,-2.3827,-2.381,-2.3808,-2.381,-2.3808,-2.3804,-2.3803,-2.3796,-2.3806,-2.3808,-2.3817,-2.3797,-2.3833,-2.3835,-2.3836,-2.3855,-2.3858,-2.3861,0,0,0,0,0,-2.3812,-2.3826,-2.382,-2.3821,-2.3822,-2.3828,-2.3828,-2.3819,-2.3811,-2.3817,-2.3813,-2.3803,-2.3816,-2.3808,-2.3809,-2.3819,-2.3832,-2.3834,-2.3836,-2.3853,-2.3857,-2.3861,0,0,0,0,0,0,-2.3832,-2.3825,-2.3818,-2.3831,-2.383,-2.3825,-2.3832,-2.3824,-2.3826,-2.3824,-2.3814,-2.3813,-2.3825,-2.3823,-2.3814,-2.3835,-2.3822,-2.3825,-2.3836,-2.3839,-2.3842,-2.3842,-2.3797,0,0,0,0,0,-2.3838,-2.3842,-2.3836,-2.3847,-2.3847,-2.384,-2.3842,-2.3836,-2.3835,-2.3834,-2.3831,-2.383,-2.3834,-2.3837,-2.384,-2.3855,-2.3854,-2.3863,-2.3866,-2.3868,-2.387,-2.3877,-2.388,-2.3842,-2.3842,-2.3842,0,0,-2.3849,-2.3846,-2.385,-2.3851,-2.385,-2.3855,-2.384,-2.3846,-2.385,-2.3835,-2.3844,-2.3842,-2.3841,-2.3853,-2.3859,-2.3852,-2.388,-2.387,-2.3872,-2.3872,-2.3879,-2.3883,-2.3886,-2.3843,-2.3843,-2.3843,0,0,-2.3873,-2.3872,-2.3881,-2.388,-2.3878,-2.3873,-2.3876,-2.3872,-2.3869,-2.3878,-2.3867,-2.3872,-2.3879,-2.3879,-2.388,-2.3905,-2.3896,-2.3906,-2.3921,-2.3929,-2.3932,-2.3934,-2.3942,-2.3945,-2.3908,-2.3908,-2.3908,0,-2.3888,-2.3895,-2.3887,-2.3893,-2.3894,-2.3882,-2.3891,-2.3891,-2.389,-2.3892,-2.3884,-2.3893,-2.3891,-2.3903,-2.3909,-2.3911,-2.3913,-2.3906,-2.3932,-2.3934,-2.3937,-2.3944,-2.3947,-2.3909,-2.3909,-2.3909,-2.3909,0,-2.3914,-2.3919,-2.3926,-2.3926,-2.3928,-2.3936,-2.3929,-2.3932,-2.3926,-2.3922,-2.3932,-2.393,-2.3932,-2.3935,-2.3929,-2.3946,-2.3942,-2.3934,-2.392,-2.3942,-2.3949,-2.3951,-2.3911,-2.391,-2.391,-2.391,0,0,-2.3948,-2.3944,-2.3946,-2.3946,-2.3944,-2.3948,-2.3956,-2.3958,-2.396,-2.3961,-2.3967,-2.3974,-2.3966,-2.3967,-2.3961,-2.3968,-2.3987,-2.3959,-2.3959,-2.3963,-2.4005,-2.401,-2.4014,-2.3982,-2.3982,-2.3983,-2.4005,0,-2.3971,-2.3983,-2.3976,-2.3989,-2.3994,-2.3982,-2.3989,-2.3989,-2.3985,-2.3989,-2.3986,-2.399,-2.398,-2.3981,-2.3987,-2.3983,-2.3995,-2.3982,-2.3987,-2.3987,-2.3986,-2.4017,-2.4023,-2.4043,-2.4007,-2.4008,-2.4008,0,-2.3998,-2.3999,-2.4013,-2.4009,-2.4011,-2.4017,-2.4019,-2.4023,-2.4022,-2.4019,-2.4021,-2.4014,-2.4021,-2.401,-2.402,-2.4011,-2.4013,-2.4012,-2.4012,-2.4011,-2.3998,-2.4016,-2.405,-2.4053,-2.4013,-2.4012,-2.4012,0,-2.402,-2.4026,-2.4035,-2.4035,-2.4032,-2.4036,-2.4035,-2.4034,-2.4036,-2.4038,-2.4039,-2.4042,-2.4043,-2.4045,-2.4039,-2.4031,-2.405,-2.4038,-2.4048,-2.4048,-2.4051,-2.4051,-2.4084,-2.4055,-2.4055,-2.4054,-2.4054,0,-2.4045,-2.4054,-2.4045,-2.405,-2.406,-2.4052,-2.4062,-2.406,-2.4059,-2.4063,-2.4055,-2.4059,-2.4052,-2.4056,-2.4052,-2.406,-2.4061,-2.4059,-2.4058,-2.4059,-2.4059,-2.4059,-2.4057,-2.4055,-2.4055,-2.4055,-2.4055,0,-2.4072,-2.4066,-2.4075,-2.4071,-2.4071,-2.4078,-2.4075,-2.4079,-2.4076,-2.4082,-2.4083,-2.4078,-2.4083,-2.4077,-2.4081,-2.4078,-2.409,-2.4087,-2.409,-2.4089,-2.4098,-2.4097,-2.4132,-2.4136,-2.4105,-2.4105,-2.4105,0,-2.4087,-2.4093,-2.4091,-2.4093,-2.4092,-2.4097,-2.4098,-2.4091,-2.4094,-2.4094,-2.4099,-2.4102,-2.4105,-2.4113,-2.4109,-2.4112,-2.4109,-2.4121,-2.4109,-2.411,-2.4108,-2.4107,-2.4107,-2.4123,-2.4123,-2.4123,-2.4124,0,-2.4115,-2.4112,-2.4115,-2.4117,-2.4119,-2.412,-2.4121,-2.4124,-2.4117,-2.412,-2.4124,-2.4126,-2.413,-2.4134,-2.4136,-2.4135,-2.4128,-2.4128,-2.413,-2.4131,-2.4132,-2.413,-2.4095,-2.4126,-2.4126,-2.4126,-2.4126,-2.4126,-2.4136,-2.4141,-2.4139,-2.4143,-2.4143,-2.4143,-2.4148,-2.4145,-2.4148,-2.4151,-2.4147,-2.4152,-2.4152,-2.4154,-2.4154,-2.4158,-2.4153,-2.4157,-2.4157,-2.4158,-2.4159,-2.4132,-2.4159,-2.4159,-2.4159,-2.4159,-2.4159,0,-2.4162,-2.4161,-2.4164,-2.4165,-2.4168,-2.4162,-2.4162,-2.4165,-2.4169,-2.417,-2.4172,-2.4177,-2.4181,-2.4178,-2.4181,-2.4185,-2.4182,-2.4186,-2.4185,-2.4185,-2.4164,-2.4161,-2.4188,-2.4188,-2.4188,-2.4188,-2.4188,-2.4188,-2.4176,-2.4184,-2.4181,-2.4189,-2.4188,-2.4192,-2.4193,-2.4194,-2.4194,-2.42,-2.4203,-2.4201,-2.42,-2.4203,-2.4206,-2.4205,-2.4206,-2.4211,-2.4209,-2.4189,-2.4186,-2.4183,-2.4181,-2.4212,-2.4212,-2.423,-2.423,-2.423]},{"header":{"parameterUnit":"m.s-1","parameterCategory":1,"la1":30.2991,"la2":30.254,"lo1":-89.0895,"lo2":-89.0444,"dy":0.0017,"dx":0.0017,"nx":28,"ny":28,"refTime":"2025-03-22T03:00:00:Z","depth":0,"parameterNumber":3,"parameterNumberName":"V-component_of_WINDS"},"data":[0,0,0,0,0,0,0,0,0,0,0,0,0,0,0,0,0,0,0,0,0,0,0,0,0,0,0,0,0,0,0,0,0,0,0,0,0,0,0,0,0,0,0,0,0,0,0,0,0,0,0,0,0,0,0,0,0,0,6.318,6.3181,0,6.3233,6.3234,6.3234,6.3216,6.3215,6.3213,6.3212,6.3261,6.3263,6.3266,0,0,0,0,0,0,0,0,0,0,0,0,0,6.3059,6.3062,6.318,6.3181,6.3182,6.3233,6.3234,6.3234,6.3216,6.3215,6.3213,6.3212,6.326,6.3263,6.3266,0,0,0,0,0,0,0,0,0,0,0,0,0,6.3112,6.3062,6.318,6.3179,6.3179,6.3233,6.3234,6.3235,6.3216,6.3214,6.3213,6.3211,6.3259,6.3263,6.3266,6.3323,0,0,6.3277,6.3279,0,0,0,0,0,0,0,0,6.3109,6.3116,6.3178,6.3179,6.3179,6.3216,6.3209,6.3264,6.3217,6.3202,6.3212,6.321,6.3247,6.3252,6.3265,6.3325,6.3327,6.3278,6.328,6.3281,6.3282,0,0,0,0,0,0,0,6.3105,6.3114,6.3201,6.3179,6.318,6.3174,6.318,6.3219,6.3233,6.3203,6.3202,6.3209,6.3247,6.3262,6.3266,6.3328,6.3277,6.3281,6.3283,6.3284,6.3439,6.3441,0,0,0,0,0,0,6.3102,6.3111,6.3199,6.3203,6.3139,6.3178,6.3184,6.3206,6.3233,6.3236,6.321,6.3208,6.3257,6.3262,6.3268,6.3338,6.3281,6.3285,6.3287,6.3437,6.344,6.3442,0,0,0,0,0,0,6.3099,6.311,6.3197,6.3157,6.3167,6.3182,6.3207,6.3208,6.3223,6.3238,6.324,6.3223,6.3255,6.3263,6.331,6.3339,6.3286,6.3289,6.3435,6.3438,6.3441,6.3477,0,0,0,0,0,0,6.3096,6.3109,6.3132,6.3157,6.317,6.324,6.3208,6.321,6.323,6.3227,6.3251,6.3253,6.3255,6.3305,6.3314,6.3343,6.3292,6.3432,6.3436,6.344,6.3473,6.348,6.3487,0,0,0,0,0,6.3092,6.3138,6.3133,6.3144,6.3198,6.3242,6.3249,6.3251,6.3232,6.3254,6.3265,6.3252,6.3334,6.331,6.332,6.335,6.3431,6.3435,6.344,6.347,6.3479,6.3487,0,0,0,0,0,0,6.3113,6.3141,6.3136,6.3192,6.3215,6.3239,6.3267,6.326,6.3287,6.3283,6.3283,6.3289,6.3338,6.3349,6.3321,6.3408,6.3379,6.3386,6.3399,6.3408,6.3415,6.3411,6.3295,0,0,0,0,0,6.3125,6.3159,6.3181,6.3229,6.3241,6.3252,6.3271,6.3271,6.3294,6.3303,6.3317,6.3338,6.3369,6.3389,6.3417,6.3474,6.3479,6.35,6.3507,6.3513,6.3518,6.3551,6.356,6.3457,6.3456,6.3456,0,0,6.3148,6.3168,6.3189,6.3234,6.3251,6.3286,6.326,6.3297,6.3323,6.3308,6.3355,6.3366,6.3389,6.3442,6.3466,6.3452,6.3548,6.3518,6.3523,6.3525,6.3556,6.3566,6.3575,6.346,6.3459,6.3459,0,0,6.321,6.3228,6.3271,6.329,6.3318,6.3325,6.3335,6.3361,6.3368,6.3415,6.3405,6.3435,6.3487,6.3505,6.3521,6.3592,6.3582,6.3601,6.3637,6.3669,6.3677,6.3684,6.371,6.372,6.3606,6.3607,6.3607,0,6.3235,6.3289,6.3293,6.3332,6.3352,6.3342,6.3385,6.3403,6.3438,6.3451,6.3436,6.3504,6.3518,6.3576,6.3594,6.3607,6.3618,6.3598,6.3676,6.3683,6.369,6.3715,6.3725,6.3609,6.3609,6.3608,6.3608,0,6.3319,6.3357,6.3388,6.3425,6.3448,6.3489,6.3498,6.3521,6.3519,6.3528,6.3577,6.3595,6.3628,6.3642,6.3639,6.37,6.3691,6.3675,6.3647,6.3702,6.3726,6.3735,6.3612,6.3611,6.3611,6.361,0,0,6.3395,6.3436,6.3447,6.3465,6.3496,6.3524,6.3564,6.3599,6.362,6.3644,6.3678,6.3724,6.3711,6.3729,6.3728,6.3756,6.3812,6.3738,6.3738,6.3752,6.3881,6.3893,6.3904,6.3806,6.3808,6.3809,6.388,0,6.346,6.3533,6.3539,6.3604,6.364,6.3631,6.3667,6.3689,6.3699,6.3729,6.3738,6.3771,6.3751,6.3762,6.3789,6.38,6.3838,6.3795,6.3837,6.3838,6.3832,6.3916,6.3929,6.3995,6.3889,6.389,6.3891,0,6.3545,6.3576,6.3646,6.3674,6.3689,6.3721,6.3754,6.3783,6.3808,6.3813,6.3835,6.3831,6.3872,6.3843,6.3899,6.3869,6.3887,6.3895,6.3897,6.3902,6.3869,6.3924,6.4015,6.4026,6.3906,6.3904,6.3903,0,6.3595,6.3653,6.3704,6.3719,6.3752,6.3775,6.379,6.3814,6.3835,6.3863,6.3877,6.3909,6.3926,6.3951,6.3956,6.3933,6.4012,6.3983,6.4017,6.4017,6.4035,6.4034,6.4131,6.4044,6.4044,6.4044,6.4044,0,6.3668,6.3711,6.3727,6.3758,6.3806,6.3812,6.3859,6.3872,6.3893,6.3926,6.3919,6.395,6.3954,6.3985,6.3989,6.4036,6.4043,6.4048,6.4048,6.4049,6.4049,6.4061,6.4057,6.4047,6.4046,6.4046,6.4045,0,6.3732,6.3744,6.3799,6.3827,6.3835,6.387,6.3893,6.3923,6.3932,6.3973,6.3983,6.3998,6.4034,6.4041,6.4083,6.4086,6.4142,6.4137,6.4135,6.4134,6.4169,6.4166,6.4279,6.4294,6.4196,6.4197,6.4198,0,6.3778,6.3812,6.3845,6.3868,6.3884,6.392,6.3943,6.3949,6.3972,6.4005,6.403,6.4066,6.4096,6.4154,6.4168,6.42,6.4197,6.4234,6.4202,6.4202,6.4199,6.4198,6.4201,6.4241,6.4242,6.4243,6.4243,0,6.3859,6.3864,6.3898,6.3935,6.3963,6.3991,6.4018,6.4036,6.4046,6.4072,6.4111,6.4134,6.4179,6.4215,6.4248,6.4261,6.4254,6.4253,6.4263,6.4265,6.4262,6.4266,6.4153,6.4251,6.425,6.425,6.4249,6.4249,6.3917,6.3947,6.3976,6.4014,6.4036,6.4062,6.4091,6.4106,6.4139,6.4177,6.4178,6.4221,6.4245,6.429,6.4305,6.4338,6.4326,6.434,6.4344,6.4348,6.4352,6.4257,6.4344,6.4343,6.4343,6.4343,6.4343,0,6.3999,6.4017,6.4053,6.4092,6.4122,6.4115,6.4145,6.417,6.4208,6.4233,6.4263,6.4308,6.4343,6.436,6.4395,6.4418,6.4416,6.4427,6.4426,6.4429,6.4359,6.4348,6.4429,6.4429,6.4429,6.4428,6.4428,6.4428,6.4045,6.4097,6.4106,6.4168,6.4186,6.4229,6.4247,6.4271,6.4291,6.4342,6.4373,6.4384,6.4406,6.4443,6.4475,6.4479,6.4492,6.4506,6.4508,6.4443,6.4434,6.4426,6.4415,6.4508,6.4508,6.4575,6.4576,6.4576]}]]